Quincy, IL

10:11 AM CDT on May 24, 2017 (GMT -0500)
Quincy Regional-Baldwin

Weather History for KUIN - August, 2014

Change the Weather History Date:

Sunday, August 17, 2014

  Actual Average Record
Temperature  
Mean Temperature 72 °F 75 °F  
Max Temperature 77 °F 85 °F 106 °F (1936)
Min Temperature 66 °F 65 °F 52 °F (2012)
Degree Days  
Heating Degree Days 0 0  
Month to date heating degree days 0 0  
Since 1 June heating degree days 9 16  
Since 1 July heating degree days 5 0  
Cooling Degree Days 7 10  
Month to date cooling degree days 115 175  
Year to date cooling degree days 723 831  
Since 1 June cooling degree days 580 745  
Growing Degree Days 20 (Base 50)    
Moisture  
Dew Point 68 °F    
Average Humidity 91    
Maximum Humidity 100    
Minimum Humidity 82    
Precipitation  
Precipitation 0.01 in 0.11 in 3.07 in (2009)
Month to date precipitation 5.23 2.01  
Year to date precipitation 24.68 24.13  
Sea Level Pressure  
Sea Level Pressure 29.89 in    
Wind  
Wind Speed 7 mph (NNE)    
Max Wind Speed 13 mph    
Max Gust Speed 15 mph    
Visibility 2 miles    
Events Fog , Rain    
T = Trace of Precipitation, MM = Missing Value Source: NWS Daily Summary

Daily Weather History Graph

Daily Weather History Graph

Search for Another Location

Airport or City:

Trip Planner

Search our weather history database for the weather conditions in past years. The results will help you decide how hot, cold, wet, or windy it might be!

Date:

Astronomy

Aug. 17, 2014 Rise Set
Actual Time 6:18 AM CDT 7:58 PM CDT
Civil Twilight 5:49 AM CDT 8:27 PM CDT
Nautical Twilight 5:14 AM CDT 9:01 PM CDT
Astronomical Twilight 4:37 AM CDT 9:38 PM CDT
Moon No Moon Rise 2:04 PM CDT (8/17)
Length of Visible Light 14h 37m
Length of Day
13h 40m
Waning Gibbous, 48% of the Moon is Illuminated
Aug 17
Waning Gibbous
Aug 25
New
Sep 2
First Quarter
Sep 8
Full
Sep 15
Last Quarter

Hourly Weather History & Observations

Time (CDT) Temp. Dew Point Humidity Pressure Visibility Wind Dir Wind Speed Gust Speed Precip Events Conditions
12:17 AM 70.0 °F 68.0 °F 93% 29.84 in 3.0 mi NNE 5.8 mph - N/A   Overcast
12:50 AM 69.8 °F 68.0 °F 94% 29.84 in 3.0 mi NNE 6.9 mph - N/A   Overcast
12:54 AM 69.1 °F 68.0 °F 96% 29.83 in 3.0 mi North 6.9 mph - N/A   Overcast
1:03 AM 69.1 °F 68.0 °F 96% 29.84 in 1.8 mi NNE 8.1 mph - N/A   Overcast
1:17 AM 69.1 °F 68.0 °F 96% 29.84 in 0.5 mi North 10.4 mph - N/A Fog Fog
1:54 AM 68.0 °F 68.0 °F 100% 29.82 in 0.5 mi NNE 8.1 mph - N/A Fog Fog
2:41 AM 69.1 °F 68.0 °F 96% 29.84 in 1.0 mi NNE 9.2 mph - 0.00 in Rain Light Rain
2:54 AM 69.1 °F 68.0 °F 96% 29.82 in 1.5 mi NNE 8.1 mph - 0.01 in Rain Light Rain
3:11 AM 69.1 °F 68.0 °F 96% 29.84 in 2.0 mi NE 9.2 mph - 0.00 in Rain Light Rain
3:33 AM 69.1 °F 68.0 °F 96% 29.84 in 1.5 mi NNE 6.9 mph - 0.00 in   Overcast
3:54 AM 69.1 °F 68.0 °F 96% 29.83 in 1.2 mi NNE 8.1 mph - 0.00 in   Overcast
4:09 AM 69.1 °F 68.0 °F 96% 29.84 in 2.0 mi NNE 6.9 mph - N/A   Overcast
4:44 AM 68.0 °F 66.9 °F 96% 29.85 in 3.0 mi North 9.2 mph - N/A   Overcast
4:54 AM 68.0 °F 66.9 °F 96% 29.83 in 2.5 mi North 8.1 mph - N/A   Overcast
5:02 AM 68.0 °F 66.9 °F 96% 29.84 in 0.8 mi North 9.2 mph - N/A   Overcast
5:16 AM 68.0 °F 66.9 °F 96% 29.85 in 0.2 mi NNE 8.1 mph - N/A Fog Fog
5:37 AM 68.0 °F 66.9 °F 96% 29.86 in 0.5 mi NNE 8.1 mph - N/A Fog Fog
5:54 AM 68.0 °F 66.9 °F 96% 29.85 in 0.5 mi NNE 6.9 mph - N/A Fog Fog
6:54 AM 68.0 °F 66.9 °F 96% 29.88 in 0.2 mi North 9.2 mph - N/A Fog Fog
7:54 AM 68.0 °F 66.9 °F 96% 29.88 in 0.2 mi NNE 8.1 mph - N/A Fog Fog
8:30 AM 68.0 °F 66.9 °F 96% 29.91 in 0.5 mi NNE 8.1 mph - N/A Fog Fog
8:54 AM 68.0 °F 66.9 °F 96% 29.90 in 0.5 mi NNE 9.2 mph - N/A Fog Fog
9:34 AM 68.0 °F 66.9 °F 96% 29.93 in 1.0 mi NNE 10.4 mph - N/A   Overcast
9:54 AM 69.1 °F 68.0 °F 96% 29.91 in 1.5 mi NNE 10.4 mph - N/A   Overcast
10:39 AM 69.1 °F 68.0 °F 96% 29.94 in 2.5 mi NE 9.2 mph - N/A   Overcast
10:54 AM 69.1 °F 68.0 °F 96% 29.92 in 2.5 mi NNE 11.5 mph - N/A   Overcast
11:31 AM 70.0 °F 68.0 °F 93% 29.94 in 3.0 mi NNE 10.4 mph - N/A   Overcast
11:38 AM 70.0 °F 68.0 °F 93% 29.94 in 3.0 mi NNE 8.1 mph - N/A   Overcast
11:54 AM 71.1 °F 68.0 °F 90% 29.92 in 3.0 mi NNE 10.4 mph - N/A   Overcast
12:54 PM 73.0 °F 69.1 °F 87% 29.92 in 5.0 mi NNE 8.1 mph - N/A   Overcast
1:49 PM 75.2 °F 69.8 °F 83% 29.94 in 7.0 mi North 8.1 mph - N/A   Overcast
1:54 PM 75.9 °F 69.1 °F 79% 29.92 in 7.0 mi NNE 8.1 mph - N/A   Overcast
2:54 PM 75.0 °F 69.1 °F 82% 29.92 in 8.0 mi NE 11.5 mph - N/A   Overcast
3:54 PM 75.0 °F 69.1 °F 82% 29.92 in 8.0 mi NNE 9.2 mph - N/A   Overcast
5:54 PM 75.0 °F 69.1 °F 82% 29.91 in 7.0 mi North 4.6 mph - N/A   Overcast
6:54 PM 73.9 °F 69.1 °F 85% 29.88 in 5.0 mi NE 5.8 mph - N/A   Haze
7:34 PM 73.9 °F 69.1 °F 85% 29.90 in 4.0 mi NNE 3.5 mph - N/A   Haze
7:54 PM 73.0 °F 70.0 °F 90% 29.89 in 4.0 mi Calm Calm - N/A   Overcast
8:34 PM 72.0 °F 69.1 °F 91% 29.91 in 5.0 mi North 3.5 mph - N/A   Mostly Cloudy
8:54 PM 71.1 °F 69.1 °F 93% 29.91 in 4.0 mi NNE 4.6 mph - N/A   Scattered Clouds
9:54 PM 69.1 °F 68.0 °F 96% 29.93 in 3.0 mi Calm Calm - N/A   Clear
10:03 PM 69.1 °F 68.0 °F 96% 29.94 in 1.8 mi NE 3.5 mph - N/A   Scattered Clouds
10:24 PM 68.0 °F 66.9 °F 96% 29.94 in 2.5 mi NNE 3.5 mph - N/A   Mostly Cloudy
10:27 PM 68.0 °F 66.9 °F 96% 29.94 in 0.8 mi NE 3.5 mph - N/A   Mostly Cloudy
10:32 PM 68.0 °F 66.9 °F 96% 29.94 in 0.2 mi NE 4.6 mph - N/A Fog Fog
10:41 PM 66.9 °F 66.0 °F 97% 29.94 in 0.2 mi NNE 4.6 mph - N/A Fog Fog
10:54 PM 66.0 °F 66.0 °F 100% 29.92 in 0.8 mi NNE 4.6 mph - N/A   Mist
11:01 PM 66.9 °F 66.0 °F 97% 29.93 in 0.5 mi NNE 4.6 mph - N/A Fog Fog
11:11 PM 66.9 °F 66.0 °F 97% 29.94 in 2.0 mi NNE 5.8 mph - N/A   Partly Cloudy
11:38 PM 66.9 °F 66.0 °F 97% 29.93 in 1.8 mi North 4.6 mph - N/A   Clear
11:52 PM 66.2 °F 66.2 °F 100% 29.94 in 2.0 mi NNE 4.6 mph - N/A   Clear
11:54 PM 66.9 °F 66.0 °F 97% 29.92 in 2.0 mi NNE 4.6 mph - N/A   Clear